CW8046 Weather Reports


time (UTC)temp
C
wind
direction
speed
KPH
gust
KPH
rain 1hr
cm
rain 24hr
cm
rain mn
cm
humidity
%
barometer
mb
20260506015512 19 42 1.6 3.2 0.00 0.00 0.00 61 1015.4
20260506015235 19 326 1.6 4.8 0.00 0.00 0.00 61 1015.3
20260506014511 19 52 1.6 4.8 0.00 0.00 0.00 60 1015.1
20260506014010 19 82 1.6 4.8 0.00 0.00 0.00 60 1015.2
20260506013509 19 99 1.6 4.8 0.00 0.00 0.00 59 1015.1
20260506013011 19 67 0.0 3.2 0.00 0.00 0.00 59 1015.0
20260506012509 20 67 1.6 3.2 0.00 0.00 0.00 58 1014.9
20260506012011 20 67 0.0 3.2 0.00 0.00 0.00 57 1014.8
20260506011510 21 67 0.0 1.6 0.00 0.00 0.00 57 1014.7
20260506011004 21 67 0.0 1.6 0.00 0.00 0.00 56 1014.5
20260506010457 21 67 0.0 1.6 0.00 0.00 0.00 54 1014.6
20260506005950 22 67 0.0 1.6 0.00 0.00 0.00 54 1014.4
20260506005714 22 67 0.0 1.6 0.00 0.00 0.00 52 1014.4
20260506004938 22 67 0.0 1.6 0.00 0.00 0.00 52 1014.4
20260506004433 22 67 0.0 1.6 0.00 0.00 0.00 51 1014.3
20260506003926 23 67 0.0 1.6 0.00 0.00 0.00 50 1014.2
20260506003421 23 67 0.0 1.6 0.00 0.00 0.00 47 1014.1
20260506002914 23 67 0.0 0.0 0.00 0.00 0.00 45 1013.9
20260506002408 23 153 0.0 0.0 0.00 0.00 0.00 44 1013.8
20260506001902 24 153 0.0 1.6 0.00 0.00 0.00 43 1013.8
20260506001619 24 153 0.0 1.6 0.00 0.00 0.00 42 1013.7
20260506000851 25 153 0.0 1.6 0.00 0.00 0.00 41 1013.7
20260506000608 25 153 0.0 3.2 0.00 0.00 0.00 41 1013.7
20260505235839 25 153 1.6 3.2 0.00 0.00 0.00 40 1013.7
20260505235337 25 82 1.6 4.8 0.00 0.00 0.00 40 1013.6
20260505234839 25 129 0.0 4.8 0.00 0.00 0.00 39 1013.6
20260505234341 26 142 1.6 4.8 0.00 0.00 0.00 37 1013.9
20260505234334 26 148 0.0 3.2 0.00 0.00 0.00 38 1013.8
20260505233333 26 250 1.6 4.8 0.00 0.00 0.00 36 1013.8
20260505232832 26 113 1.6 4.8 0.00 0.00 0.00 36 1013.9
20260505232555 26 160 1.6 6.4 0.00 0.00 0.00 35 1013.8
20260505231832 26 260 1.6 6.4 0.00 0.00 0.00 35 1013.7
20260505231552 26 63 3.2 11.3 0.00 0.00 0.00 36 1013.9
20260505231050 26 185 3.2 11.3 0.00 0.00 0.00 33 1013.9
20260505230333 27 182 3.2 9.7 0.00 0.00 0.00 34 1014.0
20260505230057 27 271 3.2 9.7 0.00 0.00 0.00 33 1014.0
20260505225333 27 169 4.8 9.7 0.00 0.00 0.00 32 1014.0
20260505224828 27 140 4.8 12.9 0.00 0.00 0.00 32 1014.1
20260505224329 27 196 4.8 12.9 0.00 0.00 0.00 32 1014.1
20260505224318 27 133 4.8 14.5 0.00 0.00 0.00 32 1014.1
20260505223327 27 177 4.8 17.7 0.00 0.00 0.00 32 1014.3
20260505222828 27 242 6.4 17.7 0.00 0.00 0.00 31 1014.3
20260505222328 27 284 6.4 17.7 0.00 0.00 0.00 30 1014.3
20260505221827 27 242 4.8 16.1 0.00 0.00 0.00 31 1014.1
20260505221327 27 158 6.4 17.7 0.00 0.00 0.00 31 1014.0
20260505220830 28 273 6.4 17.7 0.00 0.00 0.00 30 1014.1
20260505220324 28 115 4.8 14.5 0.00 0.00 0.00 30 1014.1
20260505220044 28 290 4.8 14.5 0.00 0.00 0.00 31 1014.0
20260505215325 28 220 6.4 14.5 0.00 0.00 0.00 31 1013.9
20260505214825 28 224 6.4 17.7 0.00 0.00 0.00 31 1014.0
20260505214324 28 186 4.8 17.7 0.00 0.00 0.00 30 1014.0
20260505213823 28 243 4.8 11.3 0.00 0.00 0.00 31 1014.1
20260505213323 28 272 4.8 11.3 0.00 0.00 0.00 30 1014.0
20260505212823 28 138 4.8 12.9 0.00 0.00 0.00 31 1014.0
20260505212543 28 258 6.4 16.1 0.00 0.00 0.00 30 1014.1
20260505212044 28 18 6.4 20.9 0.00 0.00 0.00 31 1014.1
20260505211542 28 175 6.4 20.9 0.00 0.00 0.00 30 1014.1
20260505210819 28 78 6.4 14.5 0.00 0.00 0.00 32 1014.2
20260505210801 28 102 4.8 16.1 0.00 0.00 0.00 30 1014.3
20260505205821 28 107 4.8 16.1 0.00 0.00 0.00 30 1014.4
20260505205320 28 215 4.8 12.9 0.00 0.00 0.00 31 1014.4
20260505205047 28 294 4.8 16.1 0.00 0.00 0.00 31 1014.3
20260505204546 28 270 4.8 16.1 0.00 0.00 0.00 31 1014.4
20260505203821 28 252 4.8 14.5 0.00 0.00 0.00 32 1014.3
20260505203317 28 278 6.4 14.5 0.00 0.00 0.00 30 1014.4
20260505202817 28 190 4.8 14.5 0.00 0.00 0.00 32 1014.5
20260505202317 27 164 6.4 14.5 0.00 0.00 0.00 32 1014.6
20260505201816 27 327 6.4 14.5 0.00 0.00 0.00 33 1014.6
20260505201315 27 306 6.4 16.1 0.00 0.00 0.00 32 1014.8
20260505201044 27 253 4.8 16.1 0.00 0.00 0.00 31 1014.8
20260505200317 27 161 4.8 14.5 0.00 0.00 0.00 32 1014.9
20260505195816 27 327 6.4 20.9 0.00 0.00 0.00 30 1015.1
20260505195318 27 234 6.4 20.9 0.00 0.00 0.00 31 1015.0
20260505194813 27 255 4.8 14.5 0.00 0.00 0.00 33 1015.0
20260505194313 27 101 4.8 14.5 0.00 0.00 0.00 34 1015.1
20260505193811 27 279 6.4 16.1 0.00 0.00 0.00 32 1015.3
20260505193311 27 198 6.4 17.7 0.00 0.00 0.00 31 1015.4
20260505192812 27 257 6.4 17.7 0.00 0.00 0.00 32 1015.2
20260505192537 27 126 6.4 19.3 0.00 0.00 0.00 31 1015.4
20260505191812 27 296 6.4 19.3 0.00 0.00 0.00 33 1015.5
20260505191312 27 200 8.0 27.4 0.00 0.00 0.00 32 1015.6
20260505190814 27 263 8.0 27.4 0.00 0.00 0.00 33 1015.6
20260505190312 27 232 6.4 16.1 0.00 0.00 0.00 33 1015.7
20260505185812 27 91 6.4 12.9 0.00 0.00 0.00 33 1015.8
20260505185313 27 36 6.4 19.3 0.00 0.00 0.00 34 1016.0
20260505184813 27 250 6.4 19.3 0.00 0.00 0.00 34 1015.9
20260505184312 27 288 6.4 17.7 0.00 0.00 0.00 34 1016.1
20260505183812 28 236 4.8 14.5 0.00 0.00 0.00 32 1016.1
20260505183539 28 254 4.8 12.9 0.00 0.00 0.00 34 1016.2
20260505182811 27 186 4.8 14.5 0.00 0.00 0.00 31 1016.3
20260505182312 27 190 4.8 14.5 0.00 0.00 0.00 33 1016.4
20260505181812 27 162 4.8 12.9 0.00 0.00 0.00 35 1016.5
20260505181312 27 105 3.2 9.7 0.00 0.00 0.00 36 1016.6
20260505180813 27 203 4.8 14.5 0.00 0.00 0.00 35 1016.6
20260505180313 26 251 6.4 19.3 0.00 0.00 0.00 36 1016.7
20260505175812 26 281 6.4 19.3 0.00 0.00 0.00 37 1016.8
20260505175312 26 267 3.2 16.1 0.00 0.00 0.00 38 1016.8
20260505174811 26 286 4.8 12.9 0.00 0.00 0.00 38 1016.9
20260505174530 26 152 6.4 20.9 0.00 0.00 0.00 42 1016.9
20260505173812 26 269 8.0 20.9 0.00 0.00 0.00 38 1016.9
20260505173314 26 221 6.4 16.1 0.00 0.00 0.00 39 1016.9
20260505172812 26 243 6.4 14.5 0.00 0.00 0.00 38 1016.8
20260505172312 26 267 6.4 25.7 0.00 0.00 0.00 38 1016.7
20260505171813 26 261 6.4 25.7 0.00 0.00 0.00 36 1016.8
20260505171313 26 291 6.4 16.1 0.00 0.00 0.00 37 1016.8
20260505170813 26 322 6.4 17.7 0.00 0.00 0.00 38 1016.9
20260505170312 26 97 6.4 20.9 0.00 0.00 0.00 34 1017.0
20260505165814 26 298 6.4 20.9 0.00 0.00 0.00 38 1016.9
20260505165309 26 153 6.4 17.7 0.00 0.00 0.00 37 1016.9
20260505165035 26 334 8.0 20.9 0.00 0.00 0.00 36 1017.0
20260505164311 26 133 8.0 20.9 0.00 0.00 0.00 38 1017.1
20260505163812 26 253 6.4 17.7 0.00 0.00 0.00 36 1017.1
20260505163305 26 219 4.8 12.9 0.00 0.00 0.00 40 1017.1
20260505162806 26 107 4.8 14.5 0.00 0.00 0.00 40 1017.1
20260505162305 26 248 4.8 14.5 0.00 0.00 0.00 41 1017.4
20260505161800 25 194 4.8 11.3 0.00 0.00 0.00 43 1017.4
20260505161259 25 245 4.8 17.7 0.00 0.00 0.00 44 1017.4
20260505160801 25 57 4.8 17.7 0.00 0.00 0.00 46 1017.4
20260505160300 25 80 3.2 17.7 0.00 0.00 0.00 47 1017.4
20260505153019 23 224 4.8 9.7 0.00 0.00 0.00 54 1017.8
20260505152254 23 230 6.4 16.1 0.00 0.00 0.00 55 1017.9
20260505151755 23 270 6.4 16.1 0.00 0.00 0.00 55 1018.0
20260505151251 23 325 6.4 16.1 0.00 0.00 0.00 57 1017.9
20260505150754 22 267 8.0 19.3 0.00 0.00 0.00 56 1017.9
20260505150253 22 226 8.0 19.3 0.00 0.00 0.00 57 1017.9
20260505140210 21 249 8.0 19.3 0.00 0.00 0.00 61 1017.6
20260505130157 18 253 4.8 14.5 0.00 0.00 0.00 69 1017.6
20260505124640 16 288 3.2 11.3 0.00 0.00 0.00 77 1017.7
20260505124134 16 270 3.2 11.3 0.00 0.00 0.00 78 1017.6
20260505123846 15 224 1.6 8.0 0.00 0.00 0.00 80 1017.6
20260505123123 15 123 1.6 8.0 0.00 0.00 0.00 82 1017.6
20260505122616 14 196 1.6 6.4 0.00 0.00 0.00 83 1017.6
20260505122109 13 170 0.0 6.4 0.00 0.00 0.00 83 1017.6
20260505121603 13 146 1.6 4.8 0.00 0.00 0.00 84 1017.6
20260505121316 12 75 1.6 4.8 0.00 0.00 0.00 84 1017.6
20260505120552 12 58 1.6 4.8 0.00 0.00 0.00 85 1017.4
20260505120045 12 58 0.0 3.2 0.00 0.00 0.00 85 1017.2
20260505115539 11 130 0.0 3.2 0.00 0.00 0.00 85 1017.1
20260505115034 11 90 0.0 1.6 0.00 0.00 0.00 85 1017.0
20260505114529 10 90 0.0 0.0 0.00 0.00 0.00 84 1017.0
20260505114023 10 90 0.0 0.0 0.00 0.00 0.00 84 1017.0
20260505113516 10 90 0.0 0.0 0.00 0.00 0.00 84 1017.1
20260505113010 9 90 0.0 0.0 0.00 0.00 0.00 84 1017.1
20260505112503 9 5 0.0 0.0 0.00 0.00 0.00 84 1017.1
20260505111958 9 5 0.0 0.0 0.00 0.00 0.00 83 1017.0
20260505111451 9 5 0.0 0.0 0.00 0.00 0.00 83 1016.9
20260505110945 8 5 0.0 0.0 0.00 0.00 0.00 83 1016.9
20260505110439 8 5 0.0 0.0 0.00 0.00 0.00 83 1016.8
20260505102113 8 64 0.0 3.2 0.00 0.00 0.00 82 1016.4
20260505101823 8 64 1.6 4.8 0.00 0.00 0.00 82 1016.4
20260505101054 8 64 3.2 4.8 0.00 0.00 0.00 82 1016.3
20260505100327 8 64 1.6 3.2 0.00 0.00 0.00 82 1016.3
20260505095821 8 64 1.6 4.8 0.00 0.00 0.00 81 1016.4
20260505095314 8 64 0.0 4.8 0.00 0.00 0.00 81 1016.4
20260505094810 9 64 0.0 0.0 0.00 0.00 0.00 81 1016.4
20260505094529 9 64 0.0 0.0 0.00 0.00 0.00 81 1016.4
20260505093758 9 64 0.0 0.0 0.00 0.00 0.00 81 1016.4
20260505093251 9 64 0.0 0.0 0.00 0.00 0.00 81 1016.5
20260505093227 9 64 0.0 0.0 0.00 0.00 0.00 81 1016.4
20260505092238 9 64 0.0 0.0 0.00 0.00 0.00 81 1016.4
20260505091733 9 64 0.0 0.0 0.00 0.00 0.00 81 1016.4
20260505091453 9 64 0.0 0.0 0.00 0.00 0.00 81 1016.4
20260505090722 9 64 0.0 0.0 0.00 0.00 0.00 81 1016.4
20260505090215 10 64 0.0 0.0 0.00 0.00 0.00 81 1016.5
20260505085709 10 64 0.0 0.0 0.00 0.00 0.00 81 1016.4
20260505085203 10 64 0.0 0.0 0.00 0.00 0.00 81 1016.4
20260505084658 10 64 0.0 0.0 0.00 0.00 0.00 80 1016.4
20260505084422 10 64 0.0 0.0 0.00 0.00 0.00 80 1016.2
20260505083658 10 64 0.0 0.0 0.00 0.00 0.00 80 1016.2
20260505083420 10 64 0.0 0.0 0.00 0.00 0.00 80 1016.2
20260505082657 10 64 0.0 0.0 0.00 0.00 0.00 80 1016.2
20260505082156 10 64 0.0 0.0 0.00 0.00 0.00 80 1016.2
20260505081656 10 64 0.0 0.0 0.00 0.00 0.00 80 1016.2
20260505081152 10 64 0.0 0.0 0.00 0.00 0.00 80 1016.2
20260505080651 10 64 0.0 0.0 0.00 0.00 0.00 80 1016.1
20260505080149 10 64 0.0 0.0 0.00 0.00 0.00 79 1016.1
20260505075648 10 64 0.0 0.0 0.00 0.00 0.00 80 1016.1
20260505075146 10 64 0.0 0.0 0.00 0.00 0.00 79 1016.0
20260505074647 10 64 0.0 0.0 0.00 0.00 0.00 79 1016.1
20260505074145 10 64 0.0 0.0 0.00 0.00 0.00 79 1016.1
20260505073913 10 64 0.0 0.0 0.00 0.00 0.00 79 1016.1
20260505073402 10 64 0.0 0.0 0.00 0.00 0.00 79 1016.0
20260505072643 10 64 0.0 0.0 0.00 0.00 0.00 79 1016.0
20260505072143 10 64 0.0 0.0 0.00 0.00 0.00 79 1016.0
20260505071644 10 64 0.0 0.0 0.00 0.00 0.00 78 1016.1
20260505071142 10 64 0.0 0.0 0.00 0.00 0.00 78 1015.9
20260505070635 11 64 0.0 0.0 0.00 0.00 0.00 78 1016.0
20260505070129 11 64 0.0 0.0 0.00 0.00 0.00 77 1016.0
20260505065623 11 64 0.0 0.0 0.00 0.00 0.00 77 1016.0
20260505065117 11 64 0.0 0.0 0.00 0.00 0.00 76 1016.0
20260505064611 11 64 0.0 0.0 0.00 0.00 0.00 76 1016.1
20260505064323 11 64 0.0 0.0 0.00 0.00 0.00 76 1016.1
20260505063559 12 64 0.0 0.0 0.00 0.00 0.00 75 1016.1
20260505063053 12 64 0.0 0.0 0.00 0.00 0.00 75 1016.1
20260505062547 12 64 0.0 0.0 0.00 0.00 0.00 74 1016.2
20260505062041 12 64 0.0 0.0 0.00 0.00 0.00 74 1016.2
20260505061536 12 64 0.0 0.0 0.00 0.00 0.00 73 1016.2
20260505061031 13 64 0.0 0.0 0.00 0.00 0.00 72 1016.3
20260505060523 13 64 0.0 0.0 0.00 0.00 0.00 72 1016.3
20260505060017 13 64 0.0 0.0 0.00 0.00 0.00 71 1016.3
20260505055511 13 64 0.0 1.6 0.00 0.00 0.00 71 1016.3
20260505055005 13 64 0.0 1.6 0.00 0.00 0.00 70 1016.3
20260505054720 13 64 0.0 3.2 0.00 0.00 0.00 70 1016.3
20260505054218 14 64 0.0 3.2 0.00 0.00 0.00 70 1016.4
20260505053448 14 64 1.6 3.2 0.00 0.00 0.00 69 1016.5
20260505052941 14 64 1.6 3.2 0.00 0.00 0.00 69 1016.5
20260505052435 14 64 1.6 3.2 0.00 0.00 0.00 68 1016.5
20260505051930 15 64 1.6 3.2 0.00 0.00 0.00 68 1016.5
20260505051424 15 64 0.0 3.2 0.00 0.00 0.00 67 1016.6
20260505050923 15 105 0.0 3.2 0.00 0.00 0.00 67 1016.6
20260505050422 15 129 1.6 3.2 0.00 0.00 0.00 67 1016.6
20260505041630 13 333 0.0 3.2 0.00 0.00 0.00 70 1016.8
20260505041137 13 240 0.0 3.2 0.00 0.00 0.00 70 1016.7
20260505040631 13 86 0.0 1.6 0.00 0.00 0.00 70 1016.7
20260505035912 13 86 0.0 0.0 0.00 0.00 0.00 70 1016.6
20260505035409 13 86 0.0 0.0 0.00 0.00 0.00 70 1016.6
20260505035143 14 86 0.0 0.0 0.00 0.00 0.00 69 1016.6
20260505034411 14 86 0.0 0.0 0.00 0.00 0.00 69 1016.6
20260505033909 14 86 0.0 0.0 0.00 0.00 0.00 69 1016.6
20260505033410 14 86 0.0 0.0 0.00 0.00 0.00 68 1016.6
20260505032908 14 86 0.0 0.0 0.00 0.00 0.00 69 1016.6
20260505032409 14 86 0.0 3.2 0.00 0.00 0.00 68 1016.7
20260505031908 14 86 1.6 3.2 0.00 0.00 0.00 68 1016.6
20260505031406 14 86 1.6 3.2 0.00 0.00 0.00 68 1016.7
20260505030907 14 76 0.0 3.2 0.00 0.00 0.00 67 1016.7
20260505030407 14 76 0.0 1.6 0.00 0.00 0.00 67 1016.8
20260505025908 14 76 0.0 0.0 0.00 0.00 0.00 67 1016.8
20260505025406 14 76 0.0 1.6 0.00 0.00 0.00 66 1016.7
20260505024907 14 76 0.0 1.6 0.00 0.00 0.00 66 1016.7
20260505024407 14 76 0.0 1.6 0.00 0.00 0.00 65 1016.6
20260505024130 15 76 1.6 3.2 0.00 0.00 0.00 65 1016.6
20260505023405 15 76 1.6 3.2 0.00 0.00 0.00 64 1016.6
20260505022905 15 76 1.6 3.2 0.00 0.00 0.00 64 1016.5
20260505022405 15 76 1.6 3.2 0.00 0.00 0.00 64 1016.5
20260505021905 15 116 0.0 3.2 0.00 0.00 0.00 63 1016.5
20260505021401 15 140 0.0 3.2 0.00 0.00 0.00 63 1016.5
20260505020901 15 150 1.6 6.4 0.00 0.00 0.00 63 1016.4
20260505020401 16 150 1.6 6.4 0.00 0.00 0.00 62 1016.3
20260505015900 16 270 0.0 4.8 0.00 0.00 0.00 62 1016.3